| time (UTC) | temp F | wind direction | speed knots | gust knots | rain 1hr in | rain 24hr in | rain mn in | humidity % | barometer mb |
| 20260506033038 | 70 | 238 | 1.7 | 4.3 | 0.00 | 0.00 | 0.00 | 58 | 1009.3 |
| 20260506031536 | 71 | 218 | 0.9 | 5.2 | 0.00 | 0.00 | 0.00 | 57 | 1009.3 |
| 20260506030037 | 71 | 207 | 1.7 | 6.1 | 0.00 | 0.00 | 0.00 | 55 | 1009.0 |
| 20260506024536 | 72 | 210 | 1.7 | 7.0 | 0.00 | 0.00 | 0.00 | 52 | 1009.1 |
| 20260506023033 | 73 | 212 | 3.5 | 5.2 | 0.00 | 0.00 | 0.00 | 49 | 1009.1 |
| 20260506021536 | 73 | 229 | 2.6 | 7.0 | 0.00 | 0.00 | 0.00 | 48 | 1009.0 |
| 20260506020032 | 73 | 222 | 1.7 | 5.2 | 0.00 | 0.00 | 0.00 | 47 | 1008.9 |
| 20260506014530 | 74 | 217 | 0.9 | 3.5 | 0.00 | 0.00 | 0.00 | 46 | 1008.8 |
| 20260506013033 | 74 | 217 | 1.7 | 4.3 | 0.00 | 0.00 | 0.00 | 45 | 1008.6 |
| 20260506011548 | 75 | 218 | 2.6 | 11.3 | 0.00 | 0.00 | 0.00 | 44 | 1008.5 |
| 20260506010029 | 75 | 215 | 0.9 | 5.2 | 0.00 | 0.00 | 0.00 | 42 | 1008.3 |
| 20260506004539 | 75 | 228 | 0.0 | 2.6 | 0.00 | 0.00 | 0.00 | 41 | 1008.1 |
| 20260506003030 | 76 | 231 | 0.9 | 4.3 | 0.00 | 0.00 | 0.00 | 39 | 1008.1 |
| 20260506001530 | 75 | 222 | 0.9 | 3.5 | 0.00 | 0.00 | 0.00 | 39 | 1007.9 |
| 20260506000026 | 76 | 313 | 0.0 | 3.5 | 0.00 | 0.00 | 0.00 | 39 | 1007.8 |
| 20260505234529 | 77 | 229 | 1.7 | 7.8 | 0.00 | 0.00 | 0.00 | 36 | 1007.6 |
| 20260505233031 | 77 | 219 | 0.9 | 7.0 | 0.00 | 0.00 | 0.00 | 36 | 1007.6 |
| 20260505231529 | 78 | 224 | 0.9 | 6.1 | 0.00 | 0.00 | 0.00 | 35 | 1007.3 |
| 20260505230024 | 78 | 232 | 1.7 | 8.7 | 0.00 | 0.00 | 0.00 | 34 | 1007.3 |
| 20260505224521 | 79 | 211 | 0.9 | 5.2 | 0.00 | 0.00 | 0.00 | 34 | 1007.1 |
| 20260505223021 | 79 | 222 | 0.9 | 6.1 | 0.00 | 0.00 | 0.00 | 32 | 1007.0 |
| 20260505221519 | 80 | 256 | 3.5 | 9.6 | 0.00 | 0.00 | 0.00 | 31 | 1006.8 |
| 20260505220040 | 80 | 224 | 5.2 | 13.0 | 0.00 | 0.00 | 0.00 | 31 | 1006.6 |
| 20260505214525 | 81 | 219 | 0.9 | 4.3 | 0.00 | 0.00 | 0.00 | 35 | 1006.8 |
| 20260505213020 | 80 | 210 | 1.7 | 5.2 | 0.00 | 0.00 | 0.00 | 34 | 1006.7 |
| 20260505211514 | 81 | 228 | 4.3 | 12.2 | 0.00 | 0.00 | 0.00 | 33 | 1006.3 |
| 20260505210013 | 81 | 238 | 3.5 | 12.2 | 0.00 | 0.00 | 0.00 | 34 | 1006.4 |
| 20260505204511 | 82 | 225 | 1.7 | 9.6 | 0.00 | 0.00 | 0.00 | 34 | 1006.2 |
| 20260505203012 | 82 | 222 | 2.6 | 7.8 | 0.00 | 0.00 | 0.00 | 33 | 1006.5 |
| 20260505201510 | 82 | 243 | 3.5 | 12.2 | 0.00 | 0.00 | 0.00 | 33 | 1006.7 |
| 20260505200009 | 82 | 225 | 3.5 | 10.4 | 0.00 | 0.00 | 0.00 | 34 | 1006.6 |
| 20260505194516 | 82 | 229 | 6.1 | 10.4 | 0.00 | 0.00 | 0.00 | 33 | 1006.6 |
| 20260505193006 | 82 | 201 | 4.3 | 9.6 | 0.00 | 0.00 | 0.00 | 34 | 1007.0 |
| 20260505191505 | 82 | 238 | 4.3 | 11.3 | 0.00 | 0.00 | 0.00 | 34 | 1007.2 |
| 20260505190005 | 82 | 228 | 2.6 | 9.6 | 0.00 | 0.00 | 0.00 | 37 | 1007.2 |
| 20260505184501 | 82 | 224 | 4.3 | 10.4 | 0.00 | 0.00 | 0.00 | 35 | 1007.4 |
| 20260505183104 | 82 | 248 | 3.5 | 12.2 | 0.00 | 0.00 | 0.00 | 37 | 1007.7 |
| 20260505181607 | 82 | 198 | 3.5 | 11.3 | 0.00 | 0.00 | 0.00 | 38 | 1008.0 |
| 20260505180056 | 81 | 200 | 2.6 | 8.7 | 0.00 | 0.00 | 0.00 | 40 | 1008.0 |
| 20260505174554 | 80 | 253 | 4.3 | 11.3 | 0.00 | 0.00 | 0.00 | 41 | 1008.1 |
| 20260505173052 | 80 | 231 | 4.3 | 10.4 | 0.00 | 0.00 | 0.00 | 41 | 1008.1 |
| 20260505171551 | 80 | 204 | 4.3 | 10.4 | 0.00 | 0.00 | 0.00 | 42 | 1008.3 |
| 20260505170048 | 80 | 212 | 1.7 | 7.8 | 0.00 | 0.00 | 0.00 | 41 | 1008.4 |
| 20260505164556 | 80 | 211 | 2.6 | 8.7 | 0.00 | 0.00 | 0.00 | 42 | 1008.6 |
| 20260505163044 | 80 | 236 | 0.9 | 5.2 | 0.00 | 0.00 | 0.00 | 44 | 1008.8 |
| 20260505161550 | 80 | 232 | 2.6 | 7.0 | 0.00 | 0.00 | 0.00 | 44 | 1009.1 |
| 20260505153033 | 78 | 208 | 4.3 | 8.7 | 0.00 | 0.00 | 0.00 | 43 | 1009.7 |
| 20260505151530 | 78 | 222 | 0.9 | 7.8 | 0.00 | 0.00 | 0.00 | 47 | 1009.7 |
| 20260505124612 | 63 | 228 | 0.0 | 0.9 | 0.00 | 0.00 | 0.00 | 79 | 1010.4 |
| 20260505123059 | 60 | 125 | 0.0 | 0.9 | 0.00 | 0.00 | 0.00 | 88 | 1010.4 |
| 20260505121550 | 56 | 225 | 0.0 | 0.9 | 0.00 | 0.00 | 0.00 | 94 | 1010.7 |
| 20260505120059 | 52 | 224 | 0.0 | 0.0 | 0.00 | 0.00 | 0.00 | 95 | 1010.8 |
| 20260505114543 | 50 | 216 | 0.0 | 0.0 | 0.00 | 0.00 | 0.00 | 94 | 1010.6 |
| 20260505113045 | 0 | 0.0 | 0.0 | 0.00 | 0.00 | 0.00 | 1010.2 | ||
| 20260505111535 | 0 | 0.0 | 0.0 | 0.00 | 0.00 | 0.00 | 1010.3 | ||
| 20260505101518 | 0 | 0.0 | 0.0 | 0.00 | 0.00 | 0.00 | 1010.4 | ||
| 20260505100016 | 0 | 0.0 | 0.0 | 0.00 | 0.00 | 0.00 | 1010.2 | ||
| 20260505094511 | 0 | 0.0 | 0.0 | 0.00 | 0.00 | 0.00 | 1010.2 | ||
| 20260505093004 | 0 | 0.0 | 0.0 | 0.00 | 0.00 | 0.00 | 1009.9 | ||
| 20260505091600 | 0 | 0.0 | 0.0 | 0.00 | 0.00 | 0.00 | 1009.6 | ||
| 20260505090056 | 0 | 0.0 | 0.0 | 0.00 | 0.00 | 0.00 | 1009.6 | ||
| 20260505084554 | 0 | 0.0 | 0.0 | 0.00 | 0.00 | 0.00 | 1009.6 | ||
| 20260505083052 | 0 | 0.0 | 0.0 | 0.00 | 0.00 | 0.00 | 1009.6 | ||
| 20260505081549 | 0 | 0.0 | 0.0 | 0.00 | 0.00 | 0.00 | 1009.7 | ||
| 20260505080040 | 0 | 0.0 | 0.0 | 0.00 | 0.00 | 0.00 | 1009.7 | ||
| 20260505074535 | 0 | 0.0 | 0.0 | 0.00 | 0.00 | 0.00 | 1009.7 | ||
| 20260505073033 | 0 | 0.0 | 0.0 | 0.00 | 0.00 | 0.00 | 1009.8 | ||
| 20260505071529 | 0 | 0.0 | 0.0 | 0.00 | 0.00 | 0.00 | 1009.7 | ||
| 20260505070028 | 0 | 0.0 | 0.0 | 0.00 | 0.00 | 0.00 | 1009.7 | ||
| 20260505064519 | 0 | 0.0 | 0.0 | 0.00 | 0.00 | 0.00 | 1009.6 | ||
| 20260505063013 | 0 | 0.0 | 0.0 | 0.00 | 0.00 | 0.00 | 1009.8 | ||
| 20260505061512 | 0 | 0.0 | 0.0 | 0.00 | 0.00 | 0.00 | 1009.9 | ||
| 20260505060005 | 0 | 0.0 | 0.0 | 0.00 | 0.00 | 0.00 | 1010.0 | ||
| 20260505054602 | 0 | 0.0 | 0.0 | 0.00 | 0.00 | 0.00 | 1010.1 | ||
| 20260505053114 | 50 | 207 | 0.0 | 0.0 | 0.00 | 0.00 | 0.00 | 81 | 1010.1 |
| 20260505051553 | 51 | 207 | 0.0 | 0.0 | 0.00 | 0.00 | 0.00 | 80 | 1010.2 |
| 20260505041546 | 52 | 204 | 0.0 | 0.9 | 0.00 | 0.00 | 0.00 | 77 | 1010.3 |
| 20260505040044 | 53 | 225 | 0.0 | 0.9 | 0.00 | 0.00 | 0.00 | 76 | 1010.4 |
| 20260505034554 | 53 | 226 | 0.0 | 0.9 | 0.00 | 0.00 | 0.00 | 76 | 1010.4 |